This is the latest recevied weather packets stored in our database for station/object K7DC. If no packets are shown the sender has not sent any weather packets the latest 10 day(s).
| Time | Temp. | Humidity | Pressure | Rain* | Wind** | Luminosity | Snow |
|---|---|---|---|---|---|---|---|
| 1777064690 | 33.89° C | 9% | 1010.2 hPa | 0 mm | - | 830 W/m² | - |
| 1777064387 | 33.33° C | 9% | 1010.1 hPa | 0 mm | - | 838 W/m² | - |
| 1777064083 | 33.89° C | 9% | 1010.1 hPa | 0 mm | - | 850 W/m² | - |
| 1777063782 | 34.44° C | 8% | 1010.3 hPa | 0 mm | - | 859 W/m² | - |
| 1777063478 | 33.89° C | 8% | 1010.2 hPa | 0 mm | - | 864 W/m² | - |
| 1777063174 | 33.89° C | 8% | 1010.4 hPa | 0 mm | - | 872 W/m² | - |
| 1777062871 | 33.89° C | 8% | 1010.3 hPa | 0 mm | - | 880 W/m² | - |
| 1777062567 | 33.89° C | 8% | 1010.5 hPa | 0 mm | - | 887 W/m² | - |
| 1777062267 | 33.89° C | 8% | 1010.3 hPa | 0 mm | - | 895 W/m² | - |
| 1777061965 | 33.33° C | 9% | 1010.5 hPa | 0 mm | - | 899 W/m² | - |
| 1777061661 | 33.89° C | 10% | 1010.5 hPa | 0 mm | - | 902 W/m² | - |
| 1777061356 | 33.33° C | 10% | 1010.6 hPa | 0 mm | - | 907 W/m² | - |
| 1777061051 | 33.33° C | 10% | 1010.5 hPa | 0 mm | - | 911 W/m² | - |
| 1777060748 | 32.78° C | 11% | 1010.6 hPa | 0 mm | - | 917 W/m² | - |
| 1777060448 | 33.33° C | 11% | 1010.8 hPa | 0 mm | - | 920 W/m² | - |
| 1777060144 | 32.78° C | 12% | 1010.8 hPa | 0 mm | - | 923 W/m² | - |
| 1777059841 | 33.33° C | 10% | 1011.1 hPa | 0 mm | - | 928 W/m² | - |
| 1777059537 | 32.78° C | 11% | 1010.9 hPa | 0 mm | - | 931 W/m² | - |
| 1777059234 | 32.78° C | 12% | 1010.8 hPa | 0 mm | - | 931 W/m² | - |
| 1777058933 | 32.78° C | 12% | 1010.8 hPa | 0 mm | - | 931 W/m² | - |
| 1777058628 | 32.22° C | 13% | 1011.2 hPa | 0 mm | - | 930 W/m² | - |
| 1777058326 | 31.67° C | 13% | 1011.2 hPa | 0 mm | - | 930 W/m² | - |
| 1777058023 | 30.56° C | 14% | 1011.4 hPa | 0 mm | - | 929 W/m² | - |
| 1777057723 | 31.67° C | 13% | 1011.6 hPa | 0 mm | - | 931 W/m² | - |
| 1777057423 | 31.11° C | 13% | 1011.6 hPa | 0 mm | - | 931 W/m² | - |
* Rain latest hour (hover to see other rain measurements)
** Current wind speed in m/s (hover to see current wind gust speed)